{"data":{"norad_id":52465,"intl_designator":"2022-049Q","name":"STARLINK-3863","alt_names":[],"object_type":"PAYLOAD","status":"ACTIVE","operator":null,"country":"US","launch_date":"2022-05-06","launch_site_code":"AFETR","launch_vehicle":null,"mission":null,"orbit_class":"UNKNOWN","rcs_meters":null,"size_class":null,"mass_kg":null,"dimensions":null,"purposes":["comms"],"wikipedia_slug":null,"has_3d_model":false,"image_url":null,"decayed_at":null,"tle_current":{"epoch":"2026-09-19T21:37:45.866784Z","epoch_age_seconds":115014,"freshness":"FRESH","line1":"1 52465U 22049Q   26262.90122531 -.00001157  00000+0 -22259-4 0  9999","line2":"2 52465  53.1596 246.9975 0001288  85.4954 274.6197 15.35414818241844","mean_motion":15.35414818,"eccentricity":0.0001288,"inclination_deg":53.1596,"raan_deg":246.9975,"arg_perigee_deg":85.4954,"mean_anomaly_deg":274.6197,"bstar":-2.2259e-5,"rev_number":24184,"period_min":93.785730287253,"perigee_km":458.80793672977,"apogee_km":460.56936061687,"semimajor_km":6837.8256486733,"source":"CELESTRAK","updated_at":"2026-09-20T09:00:40.034153Z"}}}